This is the latest recevied weather packets stored in our database for station/object OE6PLD-13. If no packets are shown the sender has not sent any weather packets the latest 10 day(s).
| Time | Temp. | Humidity | Pressure | Rain* | Wind** | Luminosity | Snow |
|---|---|---|---|---|---|---|---|
| 1777376963 | 18.89° C | 39% | 1012 hPa | 0.76 mm | - | 548 W/m² | - |
| 1777376779 | 20° C | 39% | 1011.7 hPa | 0.76 mm | - | 563 W/m² | - |
| 1777376596 | 20° C | 39% | 1011.8 hPa | 0.76 mm | - | 532 W/m² | - |
| 1777376412 | 20.56° C | 37% | 1011.9 hPa | 0.76 mm | - | 505 W/m² | - |
| 1777376229 | 21.11° C | 37% | 1011.9 hPa | 0.76 mm | - | 522 W/m² | - |
| 1777376046 | 20.56° C | 39% | 1012 hPa | 0.76 mm | - | 551 W/m² | - |
| 1777375862 | 20.56° C | 37% | 1011.9 hPa | 0.76 mm | - | 581 W/m² | - |
| 1777375679 | 20.56° C | 36% | 1011.8 hPa | 0.76 mm | - | 592 W/m² | - |
| 1777375496 | 20.56° C | 36% | 1012 hPa | 0.76 mm | - | 594 W/m² | - |
| 1777375312 | 20.56° C | 36% | 1011.9 hPa | 0.76 mm | - | 586 W/m² | - |
| 1777375129 | 20° C | 37% | 1012.1 hPa | 0.76 mm | - | 568 W/m² | - |
| 1777374946 | 20° C | 38% | 1011.9 hPa | 0.76 mm | - | 572 W/m² | - |
| 1777374762 | 19.44° C | 39% | 1012.2 hPa | 0.76 mm | - | 625 W/m² | - |
| 1777374579 | 20° C | 38% | 1012.3 hPa | 0.76 mm | - | 492 W/m² | - |
| 1777374395 | 20° C | 37% | 1012.1 hPa | 0.76 mm | - | 584 W/m² | - |
| 1777374212 | 20° C | 39% | 1012.3 hPa | 0.76 mm | - | 539 W/m² | - |
| 1777374029 | 20° C | 39% | 1012 hPa | 0.76 mm | - | 573 W/m² | - |
| 1777373845 | 20° C | 38% | 1012.4 hPa | 0.76 mm | - | 536 W/m² | - |
| 1777373662 | 19.44° C | 39% | 1012.3 hPa | 0.76 mm | - | 551 W/m² | - |
| 1777373479 | 19.44° C | 39% | 1012.4 hPa | 0.76 mm | - | 555 W/m² | - |
| 1777373295 | 18.89° C | 40% | 1012.4 hPa | 0.76 mm | - | 540 W/m² | - |
| 1777373112 | 18.89° C | 42% | 1012.5 hPa | 0.76 mm | - | 569 W/m² | - |
| 1777372929 | 19.44° C | 41% | 1012.4 hPa | 0.76 mm | - | 601 W/m² | - |
| 1777372745 | 19.44° C | 42% | 1012.5 hPa | 0.76 mm | - | 589 W/m² | - |
| 1777372562 | 19.44° C | 39% | 1012.5 hPa | 0.76 mm | - | 633 W/m² | - |
* Rain latest hour (hover to see other rain measurements)
** Current wind speed in m/s (hover to see current wind gust speed)